Find Starlink 30856

NORAD ID: 58725 Int'l Des: 2024-002 Owner: SPXS Country: US Constellation: starlink operational
LEOCIRCULAR

当前视图

正在加载3D地球...

About Starlink 30856

Starlink 30856 (NORAD 58725) is a starlink constellation satellite (v2 mini) launched Jan 3, 2024 by SPXS of US. It operates in LEO, CIRCULAR orbit with a mass of 730.00 kg.

即将过境

Passes for default location (London). Set your location on the main map for personalized predictions.

高度历史

Loading altitude history...

两行轨道根数

1 58725U 24002W 26238.10024188 .00001165 00000-0 46755-4 0 9994
2 58725 53.1606 162.2716 0001239 96.3626 263.7517 15.33548340147966
Epoch: Aug 26, 2026 • Age: 6 hours

当前状态

高度 466.4 km
远地点 / 近地点 N/A
速度 7.64 km/s
星下点 29.48°N, 78.91°E
发射日期 Jan 3, 2024
运行时间 2.6 years
类型 internet

技术详情

分类 Payload
质量 730.00 kg
干质量 700.00 kg
总质量 730.00 kg
长度 0.30 m
直径 4.10 m
跨度 29.00 m
形状 Box + pan
制造商 SPXS
平台类型 Starlink V2M
阶段状态 In Orbit
所有者/国家 SPXS/US

Most Searched